Lake Havasu City Information

FAA: HII - ICAO: KHII

Lake Havasu City (Airport) Location

State Arizona
County Mohave
City Lake Havasu City
Lake Havasu City (Airport) is 6 miles north of Lake Havasu City, AZ.
Latitude 34-34-16.0460N
Longitude 114-21-29.7970W
Elevation 782ft

Lake Havasu City METARs

METAR KHII 211415Z AUTO 34007KT 10SM CLR 22/M09 A2982 RMK AO2
Altimeter 29.82"
Temperature 22.0°C (71.6°F)
Wind 340° at 7KT
Clouds Skies are clear.
Visibility 10.0mi
Time observed: 2022-05-21T14:15:00Z

Lake Havasu City (Airport) Details

Status Operational
Activation May 1991
Ownership Public
Usage Public
Chart PHOENIX
ATC on-site No
Beacon schedule sunset-sunrise
Beacon color clear green

Lake Havasu City (Airport) Contacts

Owner LAKE HAVASU CITY
Owner address 2330 N. MC CULLOCH, LAKE HAVASU CITY, AZ 86403
Owner phone 928-764-3330
Manager RAYMOND POWELL
Manager address 3537 WINIFRED WAY, LAKE HAVASU CITY, AZ 86404
Manager phone 928-764-2506

Lake Havasu City Radio Frequencies

Lake Havasu City (Airport) Radio Frequencies

UNICOM 122.7
Common traffic advisory frequency (CTAF) 122.7